Flag for U.S.A. Weather past 2 weeks in Harrisburg, Pennsylvania, U.S.A.

Now
58 °F

Clear.


Feels Like: 58 °F
Forecast: 57 / 78 °F
Wind: 3 mph from West

Location: Capital City Airport

Current Time: Jul 29, 2014 at 11:28:50 PM

Latest Report: Jul 29, 2014 at 10:56 PM


Visibility: 10 mi

Pressure: 30.01 "Hg

Humidity: 84%

Dew point: 53 °F

Location of HarrisburgLocation

Historic Weather in Harrisburg — Graph

°F

Harrisburg temperature yesterday

Maximum temperature yesterday: 78 °F (at 2:56 PM)
Minimum temperature yesterday: 63 °F (at 5:56 AM)
Average temperature yesterday: 69 °F

Past Weeks' High & Low Weather Summary

 TemperatureHumidityPressure
High92 °F (Jul 23, 3:56 PM)97% (Jul 14, 10:56 PM)30.26 "Hg (Jul 14, 10:56 PM)
Low54 °F (Jul 18, 5:56 AM)24% (Jul 25, 2:56 PM)29.55 "Hg (Jul 28, 4:56 AM)
Average72 °F69%29.97 "Hg
* Reported Jul 14 9:56 PM — Jul 29 9:56 PM, Harrisburg, Weather by CustomWeather, © 2014

Note: Actual official high and low records may vary slightly from our data, if they occured in-between our weather recording intervals... More about our weather records

Advertising

Harrisburg weather history for previous 24 hours

 ConditionsComfort  
Time TempWeatherWind HumidityBarometerVisibility
9:56 PM
Jul 29
59 °FClear.5 mph84%30.01 "Hg10 mi
8:56 PM61 °FSunny.5 mph78%29.99 "Hg10 mi
7:56 PM65 °FPassing clouds.5 mph59%29.98 "Hg10 mi
6:56 PM69 °FPartly sunny.8 mph49%29.98 "Hg10 mi
5:56 PM70 °FPartly sunny.9 mph51%29.96 "Hg10 mi
4:56 PM71 °FOvercast.10 mph49%29.95 "Hg10 mi
3:56 PM70 °FOvercast.10 mph53%29.94 "Hg10 mi
2:56 PM72 °FPartly sunny.10 mph48%29.93 "Hg10 mi
1:56 PM68 °FMore clouds than sun.5 mph59%29.92 "Hg10 mi
12:56 PM70 °FMore clouds than sun.6 mph55%29.93 "Hg10 mi
11:56 AM68 °FPartly sunny.8 mph59%29.92 "Hg10 mi
10:56 AM67 °FCloudy.7 mph66%29.93 "Hg10 mi
9:56 AM65 °FPartly sunny.9 mph70%29.93 "Hg10 mi
8:56 AM64 °FOvercast.9 mph70%29.93 "Hg10 mi
7:56 AM61 °FSunny.6 mph83%29.92 "Hg10 mi
6:56 AM59 °FPassing clouds.3 mph90%29.90 "Hg10 mi
5:56 AM57 °FPassing clouds.3 mph93%29.88 "Hg10 mi
4:56 AM57 °FPassing clouds.3 mph93%29.86 "Hg10 mi
3:56 AM58 °FClear.5 mph93%29.85 "Hg10 mi
2:56 AM61 °FPassing clouds.5 mph81%29.83 "Hg10 mi
1:56 AM62 °FClear.7 mph78%29.83 "Hg10 mi
12:56 AM62 °FClear.6 mph83%29.83 "Hg10 mi
11:56 PM
Jul 28
64 °FPassing clouds.6 mph81%29.82 "Hg10 mi
Weather by CustomWeather, © 2014

See weather overviewHow to use our weather pages